CW2160 Weather Reports


time (UTC)temp
C
wind
direction
speed
KPH
gust
KPH
rain 1hr
cm
rain 24hr
cm
rain mn
cm
humidity
%
barometer
mb
20260906225530 37 127 3.2 17.7 0.00 0.00 0.00 36 1011.4
20260906225032 38 0 0.0 9.7 0.00 0.00 0.00 37 1011.6
20260906224548 38 127 1.6 9.7 0.00 0.00 0.00 36 1011.7
20260906224028 37 106 3.2 9.7 0.00 0.00 0.00 36 1011.6
20260906223532 38 0 1.6 9.7 0.00 0.00 0.00 36 1011.5
20260906223106 38 108 1.6 9.7 0.00 0.00 0.00 36 1011.6
20260906222530 38 215 1.6 8.0 0.00 0.00 0.00 36 1011.6
20260906222030 38 77 0.0 8.0 0.00 0.00 0.00 36 1011.7
20260906221603 38 127 1.6 9.7 0.00 0.00 0.00 35 1011.7
20260906221030 38 173 0.0 9.7 0.00 0.00 0.00 36 1011.7
20260906220528 38 134 0.0 8.0 0.00 0.00 0.00 36 1011.7
20260906220051 38 119 1.6 8.0 0.00 0.00 0.00 36 1011.7
20260906215528 38 184 1.6 14.5 0.00 0.00 0.00 34 1011.7
20260906215031 38 133 1.6 14.5 0.00 0.00 0.00 35 1011.8
20260906214559 38 163 0.0 12.9 0.00 0.00 0.00 36 1011.7
20260906214031 37 127 1.6 12.9 0.00 0.00 0.00 36 1011.8
20260906213532 38 188 3.2 12.9 0.00 0.00 0.00 36 1011.9
20260906213057 38 106 1.6 17.7 0.00 0.00 0.00 36 1011.9
20260906212530 38 138 1.6 17.7 0.00 0.00 0.00 36 1012.1
20260906212032 37 0 4.8 17.7 0.00 0.00 0.00 36 1012.1
20260906211555 38 113 3.2 12.9 0.00 0.00 0.00 36 1012.2
20260906211028 38 0 0.0 6.4 0.00 0.00 0.00 36 1012.3
20260906210533 38 0 0.0 8.0 0.00 0.00 0.00 36 1012.4
20260906210106 38 0 1.6 16.1 0.00 0.00 0.00 37 1012.4
20260906205531 37 0 4.8 16.1 0.00 0.00 0.00 37 1012.6
20260906205028 37 149 1.6 9.7 0.00 0.00 0.00 36 1012.6
20260906204555 37 0 0.0 1.6 0.00 0.00 0.00 39 1012.7
20260906204032 37 0 0.0 12.9 0.00 0.00 0.00 39 1012.9
20260906203531 37 0 3.2 12.9 0.00 0.00 0.00 38 1012.9
20260906203052 37 151 3.2 14.5 0.00 0.00 0.00 38 1012.9
20260906202530 36 0 1.6 14.5 0.00 0.00 0.00 39 1012.9
20260906202029 37 131 3.2 14.5 0.00 0.00 0.00 38 1013.0
20260906201623 37 117 1.6 16.1 0.00 0.00 0.00 39 1013.1
20260906201033 37 139 3.2 16.1 0.00 0.00 0.00 40 1013.2
20260906200531 36 0 0.0 12.9 0.00 0.00 0.00 40 1013.2
20260906200054 37 0 0.0 12.9 0.00 0.00 0.00 40 1013.3
20260906195528 37 0 0.0 8.0 0.00 0.00 0.00 39 1013.3
20260906195030 37 0 0.0 8.0 0.00 0.00 0.00 39 1013.4
20260906194559 37 0 3.2 9.7 0.00 0.00 0.00 40 1013.4
20260906194028 37 98 3.2 11.3 0.00 0.00 0.00 40 1013.4
20260906193530 37 78 1.6 11.3 0.00 0.00 0.00 38 1013.5
20260906193059 38 0 0.0 9.7 0.00 0.00 0.00 37 1013.5
20260906192529 38 0 0.0 12.9 0.00 0.00 0.00 37 1013.5
20260906192029 38 0 0.0 12.9 0.00 0.00 0.00 38 1013.6
20260906191608 38 0 0.0 0.0 0.00 0.00 0.00 39 1013.6
20260906191031 37 0 0.0 11.3 0.00 0.00 0.00 39 1013.8
20260906190530 38 0 0.0 11.3 0.00 0.00 0.00 40 1013.9
20260906190053 37 115 1.6 12.9 0.00 0.00 0.00 40 1013.9
20260906185528 37 279 1.6 12.9 0.00 0.00 0.00 40 1013.8
20260906185030 37 140 1.6 12.9 0.00 0.00 0.00 41 1013.9
20260906184554 37 0 0.0 8.0 0.00 0.00 0.00 39 1014.0
20260906184028 37 177 1.6 8.0 0.00 0.00 0.00 41 1014.1
20260906183531 37 0 1.6 9.7 0.00 0.00 0.00 41 1014.2
20260906183046 37 162 1.6 9.7 0.00 0.00 0.00 41 1014.3
20260906182534 37 169 1.6 11.3 0.00 0.00 0.00 41 1014.4
20260906182032 37 0 1.6 11.3 0.00 0.00 0.00 43 1014.4
20260906181632 36 76 1.6 11.3 0.00 0.00 0.00 43 1014.5
20260906181032 36 132 3.2 11.3 0.00 0.00 0.00 44 1014.6
20260906180530 36 181 1.6 9.7 0.00 0.00 0.00 45 1014.6
20260906180053 36 96 3.2 11.3 0.00 0.00 0.00 44 1014.7
20260906175530 36 0 0.0 11.3 0.00 0.00 0.00 43 1014.8
20260906175030 36 139 1.6 11.3 0.00 0.00 0.00 44 1014.8
20260906174546 36 140 3.2 11.3 0.00 0.00 0.00 44 1014.9
20260906174029 36 106 3.2 11.3 0.00 0.00 0.00 44 1015.0
20260906173530 36 0 1.6 9.7 0.00 0.00 0.00 45 1015.2
20260906173102 36 0 0.0 9.7 0.00 0.00 0.00 44 1015.2
20260906172530 36 0 1.6 9.7 0.00 0.00 0.00 44 1015.3
20260906172028 36 132 0.0 6.4 0.00 0.00 0.00 43 1015.4
20260906171556 36 162 1.6 9.7 0.00 0.00 0.00 46 1015.4
20260906171031 35 212 1.6 9.7 0.00 0.00 0.00 46 1015.4
20260906170528 35 156 1.6 6.4 0.00 0.00 0.00 46 1015.4
20260906170052 35 0 1.6 8.0 0.00 0.00 0.00 49 1015.4
20260906165528 35 0 1.6 8.0 0.00 0.00 0.00 48 1015.5
20260906165028 35 0 0.0 1.6 0.00 0.00 0.00 49 1015.6
20260906164559 35 0 0.0 0.0 0.00 0.00 0.00 50 1015.6
20260906164030 35 0 0.0 0.0 0.00 0.00 0.00 49 1015.6
20260906163529 35 0 0.0 6.4 0.00 0.00 0.00 49 1015.7
20260906163103 35 0 0.0 12.9 0.00 0.00 0.00 50 1015.7
20260906162528 34 238 3.2 12.9 0.00 0.00 0.00 51 1015.6
20260906162058 34 140 0.0 9.7 0.00 0.00 0.00 52 1015.6
20260906161605 34 127 1.6 8.0 0.00 0.00 0.00 53 1015.6
20260906161031 34 0 1.6 9.7 0.00 0.00 0.00 53 1015.6
20260906160527 33 144 0.0 9.7 0.00 0.00 0.00 52 1015.6
20260906160052 33 187 1.6 8.0 0.00 0.00 0.00 52 1015.6
20260906155527 33 131 1.6 8.0 0.00 0.00 0.00 53 1015.7
20260906155030 33 83 0.0 8.0 0.00 0.00 0.00 55 1015.6
20260906154547 33 0 0.0 8.0 0.00 0.00 0.00 56 1015.5
20260906154033 33 115 0.0 8.0 0.00 0.00 0.00 55 1015.7
20260906153532 33 0 0.0 0.0 0.00 0.00 0.00 58 1015.5
20260906153056 33 0 0.0 0.0 0.00 0.00 0.00 58 1015.4
20260906152531 32 0 0.0 3.2 0.00 0.00 0.00 60 1015.4
20260906152031 32 0 0.0 6.4 0.00 0.00 0.00 60 1015.3
20260906151553 32 0 1.6 6.4 0.00 0.00 0.00 61 1015.4
20260906151031 32 0 0.0 6.4 0.00 0.00 0.00 61 1015.4
20260906150533 32 0 0.0 6.4 0.00 0.00 0.00 61 1015.3
20260906150051 32 133 1.6 6.4 0.00 0.00 0.00 61 1015.4
20260906145531 32 0 0.0 4.8 0.00 0.00 0.00 62 1015.3
20260906145027 31 111 0.0 4.8 0.00 0.00 0.00 63 1015.4
20260906144558 31 125 0.0 4.8 0.00 0.00 0.00 63 1015.3
20260906144030 31 0 0.0 0.0 0.00 0.00 0.00 63 1015.3
20260906143529 31 0 0.0 0.0 0.00 0.00 0.00 64 1015.3
20260906143056 31 0 0.0 0.0 0.00 0.00 0.00 65 1015.3
20260906142529 31 0 0.0 0.0 0.00 0.00 0.00 64 1015.2
20260906142031 31 0 0.0 0.0 0.00 0.00 0.00 65 1015.5
20260906141558 31 0 0.0 0.0 0.00 0.00 0.00 66 1015.5
20260906141032 30 0 0.0 0.0 0.00 0.00 0.00 66 1015.5
20260906140530 30 0 0.0 0.0 0.00 0.00 0.00 66 1015.4
20260906140059 30 0 0.0 0.0 0.00 0.00 0.00 67 1015.5
20260906135529 30 0 0.0 0.0 0.00 0.00 0.00 67 1015.3
20260906135030 30 0 0.0 0.0 0.00 0.00 0.00 67 1015.3
20260906134605 30 0 0.0 0.0 0.00 0.00 0.00 69 1015.3
20260906134031 30 0 0.0 0.0 0.00 0.00 0.00 71 1015.3
20260906133532 29 0 0.0 0.0 0.00 0.00 0.00 72 1015.3
20260906133051 29 0 0.0 0.0 0.00 0.00 0.00 73 1015.3
20260906132530 29 0 0.0 0.0 0.00 0.00 0.00 73 1015.4
20260906132028 28 0 0.0 0.0 0.00 0.00 0.00 74 1015.3
20260906131554 28 0 0.0 0.0 0.00 0.00 0.00 76 1015.2
20260906131029 28 0 0.0 0.0 0.00 0.00 0.00 77 1015.2
20260906130529 27 0 0.0 0.0 0.00 0.00 0.00 79 1015.3
20260906130110 27 0 0.0 0.0 0.00 0.00 0.00 82 1015.2
20260906125529 26 0 0.0 0.0 0.00 0.00 0.00 85 1015.2
20260906125027 26 0 0.0 0.0 0.00 0.00 0.00 85 1015.1
20260906124554 26 0 0.0 0.0 0.00 0.00 0.00 85 1015.1
20260906124030 26 0 0.0 0.0 0.00 0.00 0.00 85 1015.0
20260906123527 25 0 0.0 0.0 0.00 0.00 0.00 85 1015.0
20260906123048 25 0 0.0 0.0 0.00 0.00 0.00 85 1014.9
20260906122531 25 0 0.0 0.0 0.00 0.00 0.00 85 1014.9
20260906122033 25 0 0.0 0.0 0.00 0.00 0.00 85 1014.8
20260906121553 26 0 0.0 0.0 0.00 0.00 0.00 85 1014.7
20260906121031 26 0 0.0 0.0 0.00 0.00 0.00 85 1014.7
20260906120528 26 0 0.0 0.0 0.00 0.00 0.00 85 1014.6
20260906120058 26 0 0.0 0.0 0.00 0.00 0.00 85 1014.6
20260906115532 25 0 0.0 0.0 0.00 0.00 0.00 85 1014.6
20260906115027 25 0 0.0 0.0 0.00 0.00 0.00 86 1014.6
20260906114601 25 0 0.0 0.0 0.00 0.00 0.00 85 1014.5
20260906114027 25 0 0.0 0.0 0.00 0.00 0.00 85 1014.4
20260906113533 25 0 0.0 0.0 0.00 0.00 0.00 85 1014.4
20260906113102 25 0 0.0 0.0 0.00 0.00 0.00 84 1014.4
20260906112529 25 0 0.0 0.0 0.00 0.00 0.00 84 1014.4
20260906112030 25 0 0.0 0.0 0.00 0.00 0.00 84 1014.4
20260906111545 25 0 0.0 0.0 0.00 0.00 0.00 84 1014.3
20260906111029 25 0 0.0 0.0 0.00 0.00 0.00 84 1014.3
20260906110530 25 0 0.0 0.0 0.00 0.00 0.00 84 1014.3
20260906110055 25 0 0.0 0.0 0.00 0.00 0.00 83 1014.3
20260906105528 25 0 0.0 0.0 0.00 0.00 0.00 83 1014.2
20260906105028 25 0 0.0 0.0 0.00 0.00 0.00 83 1014.1
20260906104552 25 0 0.0 0.0 0.00 0.00 0.00 82 1014.1
20260906104030 26 0 0.0 0.0 0.00 0.00 0.00 82 1014.1
20260906103529 26 0 0.0 0.0 0.00 0.00 0.00 82 1014.0
20260906103045 26 0 0.0 0.0 0.00 0.00 0.00 82 1014.1
20260906102528 26 0 0.0 0.0 0.00 0.00 0.00 82 1014.0
20260906102031 26 0 0.0 0.0 0.00 0.00 0.00 82 1013.9
20260906101544 26 0 0.0 0.0 0.00 0.00 0.00 82 1014.0
20260906101033 26 0 0.0 0.0 0.00 0.00 0.00 82 1013.9
20260906100528 26 0 0.0 0.0 0.00 0.00 0.00 81 1013.8
20260906100055 26 0 0.0 0.0 0.00 0.00 0.00 82 1013.7
20260906095528 26 0 0.0 0.0 0.00 0.00 0.00 82 1013.7
20260906095030 26 0 0.0 0.0 0.00 0.00 0.00 82 1013.8
20260906094553 26 0 0.0 0.0 0.00 0.00 0.00 82 1013.7
20260906094031 26 0 0.0 0.0 0.00 0.00 0.00 81 1013.6
20260906093528 26 0 0.0 0.0 0.00 0.00 0.00 81 1013.5
20260906093059 26 0 0.0 0.0 0.00 0.00 0.00 80 1013.5
20260906092530 26 0 0.0 0.0 0.00 0.00 0.00 80 1013.5
20260906092028 26 0 0.0 0.0 0.00 0.00 0.00 80 1013.4
20260906091556 26 0 0.0 0.0 0.00 0.00 0.00 80 1013.4
20260906091028 26 0 0.0 0.0 0.00 0.00 0.00 80 1013.3
20260906090529 26 0 0.0 0.0 0.00 0.00 0.00 79 1013.3
20260906090051 26 0 0.0 0.0 0.00 0.00 0.00 79 1013.3
20260906085530 27 0 0.0 0.0 0.00 0.00 0.00 79 1013.3
20260906085028 27 0 0.0 0.0 0.00 0.00 0.00 79 1013.3
20260906084557 27 0 0.0 0.0 0.00 0.00 0.00 79 1013.4
20260906084027 27 0 0.0 0.0 0.00 0.00 0.00 78 1013.4
20260906083528 27 0 0.0 0.0 0.00 0.00 0.00 78 1013.5
20260906083048 27 0 0.0 0.0 0.00 0.00 0.00 78 1013.4
20260906082529 27 0 0.0 0.0 0.00 0.00 0.00 77 1013.3
20260906082030 27 0 0.0 0.0 0.00 0.00 0.00 77 1013.3
20260906081600 27 0 0.0 0.0 0.00 0.00 0.00 77 1013.2
20260906081029 27 0 0.0 0.0 0.00 0.00 0.00 77 1013.2
20260906080531 27 0 0.0 0.0 0.00 0.00 0.00 77 1013.3
20260906080100 27 0 0.0 0.0 0.00 0.00 0.00 77 1013.4
20260906075528 27 0 0.0 0.0 0.00 0.00 0.00 77 1013.5
20260906075027 27 0 0.0 0.0 0.00 0.00 0.00 77 1013.5
20260906074552 27 0 0.0 0.0 0.00 0.00 0.00 77 1013.6
20260906074029 27 0 0.0 0.0 0.00 0.00 0.00 77 1013.4
20260906073531 27 0 0.0 0.0 0.00 0.00 0.00 76 1013.5
20260906073047 27 0 0.0 0.0 0.00 0.00 0.00 75 1013.4
20260906072530 27 0 0.0 0.0 0.00 0.00 0.00 75 1013.5
20260906072031 27 0 0.0 0.0 0.00 0.00 0.00 74 1013.4
20260906071544 27 0 0.0 0.0 0.00 0.00 0.00 74 1013.4
20260906071029 28 0 0.0 0.0 0.00 0.00 0.00 74 1013.5
20260906070532 28 0 0.0 0.0 0.00 0.00 0.00 73 1013.8
20260906070055 28 0 0.0 0.0 0.00 0.00 0.00 73 1013.7
20260906065529 28 0 0.0 0.0 0.00 0.00 0.00 73 1013.9
20260906065030 28 0 0.0 0.0 0.00 0.00 0.00 72 1013.9
20260906064602 28 0 0.0 0.0 0.00 0.00 0.00 72 1013.8
20260906064031 28 0 0.0 0.0 0.00 0.00 0.00 72 1013.8
20260906063528 28 0 0.0 0.0 0.00 0.00 0.00 71 1013.7
20260906063058 28 0 0.0 0.0 0.00 0.00 0.00 71 1013.7
20260906062529 28 0 0.0 0.0 0.00 0.00 0.00 71 1013.7
20260906062028 28 0 0.0 0.0 0.00 0.00 0.00 70 1013.9
20260906061558 28 0 0.0 0.0 0.00 0.00 0.00 70 1013.8
20260906061027 28 0 0.0 0.0 0.00 0.00 0.00 70 1013.8
20260906060530 28 0 0.0 0.0 0.00 0.00 0.00 69 1013.9
20260906060137 28 0 0.0 0.0 0.00 0.00 0.00 69 1013.9
20260906055528 28 0 0.0 0.0 0.00 0.00 0.00 69 1013.8
20260906055030 28 0 0.0 0.0 0.00 0.00 0.00 69 1013.9
20260906054550 28 0 0.0 0.0 0.00 0.00 0.00 69 1013.9
20260906054028 28 0 0.0 0.0 0.00 0.00 0.00 69 1013.9
20260906053534 28 0 0.0 0.0 0.00 0.00 0.00 69 1013.9
20260906053057 28 0 0.0 0.0 0.00 0.00 0.00 68 1013.7
20260906052536 28 0 0.0 0.0 0.00 0.00 0.00 67 1013.6
20260906052028 28 0 0.0 0.0 0.00 0.00 0.00 67 1013.6
20260906051557 29 0 0.0 0.0 0.00 0.00 0.00 67 1013.7
20260906051028 29 0 0.0 0.0 0.00 0.00 0.00 67 1013.7
20260906050528 29 0 0.0 0.0 0.00 0.00 0.00 66 1013.7
20260906050110 29 0 0.0 0.0 0.00 0.00 0.00 66 1013.8
20260906045531 29 0 0.0 0.0 0.00 0.00 0.00 66 1013.6
20260906045031 29 0 0.0 0.0 0.00 0.00 0.00 65 1013.9
20260906044546 29 0 0.0 0.0 0.00 0.00 0.00 65 1013.7
20260906044030 30 0 0.0 0.0 0.00 0.00 0.00 65 1013.9
20260906043528 30 0 0.0 0.0 0.00 0.00 0.00 65 1013.8
20260906043100 30 0 0.0 0.0 0.00 0.00 0.00 64 1013.8
20260906042528 30 0 0.0 0.0 0.00 0.00 0.00 64 1013.8
20260906042030 30 0 0.0 0.0 0.00 0.00 0.00 64 1013.9
20260906041555 30 0 0.0 0.0 0.00 0.00 0.00 64 1013.7
20260906041029 30 0 0.0 0.0 0.00 0.00 0.00 63 1013.7
20260906040528 30 0 0.0 0.0 0.00 0.00 0.00 63 1013.7
20260906040050 30 0 0.0 0.0 0.00 0.00 0.00 63 1013.7
20260906035533 30 0 0.0 0.0 0.00 0.00 0.00 62 1013.7
20260906035030 30 0 0.0 0.0 0.00 0.00 0.00 62 1013.7
20260906034555 30 0 0.0 0.0 0.00 0.00 0.00 62 1013.7
20260906034028 30 0 0.0 0.0 0.00 0.00 0.00 62 1013.7
20260906033527 30 0 0.0 0.0 0.00 0.00 0.00 61 1013.7
20260906033045 30 0 0.0 0.0 0.00 0.00 0.00 61 1013.6
20260906032527 30 0 0.0 0.0 0.00 0.00 0.00 61 1013.6
20260906032031 31 0 0.0 0.0 0.00 0.00 0.00 60 1013.6
20260906031616 31 0 0.0 0.0 0.00 0.00 0.00 60 1013.8
20260906031027 31 0 0.0 4.8 0.00 0.00 0.00 59 1013.9
20260906030528 31 0 0.0 4.8 0.00 0.00 0.00 59 1013.7
20260906030051 31 221 0.0 0.0 0.00 0.00 0.00 59 1013.8
20260906025533 31 0 0.0 0.0 0.00 0.00 0.00 58 1013.7
20260906025031 31 0 0.0 0.0 0.00 0.00 0.00 58 1013.7
20260906024555 31 0 0.0 8.0 0.00 0.00 0.00 58 1013.6
20260906024030 31 0 0.0 8.0 0.00 0.00 0.00 57 1013.5
20260906023530 31 0 0.0 6.4 0.00 0.00 0.00 56 1013.5
20260906023101 31 0 0.0 4.8 0.00 0.00 0.00 56 1013.3
20260906022529 31 0 0.0 6.4 0.00 0.00 0.00 56 1013.2
20260906022029 31 0 0.0 6.4 0.00 0.00 0.00 55 1013.2
20260906021555 31 162 0.0 8.0 0.00 0.00 0.00 55 1013.0
20260906021031 31 148 1.6 11.3 0.00 0.00 0.00 55 1013.0
20260906020529 31 0 0.0 11.3 0.00 0.00 0.00 54 1012.9
20260906020057 32 141 0.0 9.7 0.00 0.00 0.00 54 1012.8
20260906015529 32 129 1.6 9.7 0.00 0.00 0.00 53 1012.8
20260906015030 32 0 3.2 9.7 0.00 0.00 0.00 53 1012.8
20260906014557 32 0 0.0 1.6 0.00 0.00 0.00 53 1012.8
20260906014029 32 0 0.0 1.6 0.00 0.00 0.00 52 1012.7
20260906013532 32 0 0.0 6.4 0.00 0.00 0.00 51 1012.5
20260906013056 33 0 0.0 11.3 0.00 0.00 0.00 51 1012.5
20260906012529 33 143 3.2 12.9 0.00 0.00 0.00 50 1012.3
20260906012029 33 141 1.6 12.9 0.00 0.00 0.00 48 1012.2
20260906011544 33 203 6.4 11.3 0.00 0.00 0.00 47 1012.0
20260906011027 34 120 1.6 12.9 0.00 0.00 0.00 47 1011.9
20260906010528 34 71 3.2 12.9 0.00 0.00 0.00 47 1011.8
20260906010044 35 102 1.6 9.7 0.00 0.00 0.00 46 1011.7
20260906005528 35 217 0.0 12.9 0.00 0.00 0.00 45 1011.7
20260906005029 35 106 3.2 12.9 0.00 0.00 0.00 44 1011.6
20260906004558 35 141 0.0 0.0 0.00 0.00 0.00 41 1011.7
20260906004031 36 0 0.0 6.4 0.00 0.00 0.00 40 1011.6
20260906003530 36 0 0.0 6.4 0.00 0.00 0.00 39 1011.6
20260906003049 36 0 0.0 6.4 0.00 0.00 0.00 39 1011.6
20260906002529 36 134 0.0 6.4 0.00 0.00 0.00 39 1011.6
20260906002027 36 0 0.0 0.0 0.00 0.00 0.00 38 1011.7
20260906001546 36 0 0.0 8.0 0.00 0.00 0.00 37 1011.6
20260906001029 37 0 0.0 8.0 0.00 0.00 0.00 37 1011.5
20260906000529 37 0 1.6 8.0 0.00 0.00 0.00 37 1011.5
20260906000105 37 0 0.0 9.7 0.00 0.00 0.00 36 1011.5
20260905235529 37 0 0.0 9.7 0.00 0.00 0.00 36 1011.4
20260905235033 37 0 0.0 6.4 0.00 0.00 0.00 35 1011.3
20260905234549 37 0 0.0 6.4 0.00 0.00 0.00 35 1011.3
20260905234027 37 0 1.6 6.4 0.00 0.00 0.00 35 1011.3
20260905233528 37 0 0.0 0.0 0.00 0.00 0.00 34 1011.3
20260905233049 38 0 0.0 0.0 0.00 0.00 0.00 35 1011.3
20260905232529 38 0 0.0 0.0 0.00 0.00 0.00 35 1011.2
20260905232029 38 0 0.0 8.0 0.00 0.00 0.00 35 1011.3
20260905231550 38 0 0.0 8.0 0.00 0.00 0.00 34 1011.3
20260905231028 38 113 0.0 8.0 0.00 0.00 0.00 33 1011.3
20260905230526 39 27 0.0 4.8 0.00 0.00 0.00 33 1011.3
20260905230100 38 0 0.0 4.8 0.00 0.00 0.00 34 1011.3